Temperature
13 13 13 13 13 13 13 13 13 13 13 13 13 13 13 13 12 12 12 12 12 12 12 11 11 11 11 11 11 10 10 10 10 9 9 10 10 10 11 11 11 11 11
12 12 12 12 12 12 13 13 13 13 13 13 13 12 12 12 12 12 12 12 12 12 11 11 11 11 11 11 10 10 10 10 9 9 9 9 10 10 10 10 11 11 10
12 12 12 12 12 12 12 12 12 12 12 12 12 12 12 12 11 11 11 11 11 11 11 11 11 11 11 11 10 10 10 9 9 9 9 9 10 10 10 10 10 10 10
12 11 11 11 12 12 12 12 12 12 12 12 12 12 11 11 11 11 11 11 11 11 11 11 11 11 10 10 10 10 10 9 9 9 9 9 9 9 9 9 10 10 10
11 11 11 11 11 12 12 12 12 12 11 11 11 11 11 11 11 10 10 10 11 11 10 10 10 10 10 10 10 10 9 9 9 9 9 8 8 8 8 9 9 9 9
10 10 10 11 11 11 11 11 11 11 11 11 11 11 11 10 10 10 10 10 10 10 10 10 10 10 10 10 10 9 9 9 9 8 8 8 8 8 8 8 8 8 9
10 10 10 10 10 11 11 11 11 11 10 10 10 10 10 10 9 9 9 9 9 9 10 10 9 9 9 9 9 9 9 9 9 8 8 8 8 8 8 8 8 8 8
10 9 9 9 10 10 10 10 10 10 10 10 10 10 9 9 9 9 8 8 9 9 9 9 9 9 9 9 9 9 9 9 9 8 8 8 8 8 8 8 7 7 8
9 9 9 9 9 9 9 9 9 9 9 9 9 9 9 8 8 8 8 8 8 8 8 8 8 9 9 9 8 8 8 8 8 8 8 8 8 8 7 7 7 7 7
9 9 9 8 9 9 9 9 9 9 9 9 8 8 8 8 8 7 7 7 8 8 8 8 8 8 8 8 8 8 8 8 8 8 7 7 7 7 7 7 7 7 7
9 9 8 8 8 8 8 8 8 8 8 8 8 7 7 7 7 7 7 7 7 7 7 7 7 7 8 8 7 7 7 7 7 7 7 7 7 7 7 7 7 6 6
8 8 8 8 8 8 8 8 8 7 8 7 7 7 7 7 7 6 7 7 6 6 6 6 6 7 7 7 7 7 7 7 7 7 7 7 7 6 6 6 6 6 6
8 8 8 7 7 7 7 7 7 7 7 7 7 7 6 6 6 6 6 6 6 6 6 6 6 6 6 6 6 6 7 7 7 7 7 6 6 6 6 6 6 6 6
8 7 7 7 7 7 6 6 6 6 6 6 6 6 6 5 5 5 5 5 5 5 5 5 5 6 6 6 6 6 6 6 6 6 6 6 6 6 6 6 6 6 6
7 7 6 6 6 6 6 6 6 6 6 6 6 5 5 5 5 5 5 5 5 5 5 5 5 5 5 5 5 5 5 5 6 6 6 6 6 6 5 5 6 5 5
7 6 6 6 6 5 5 5 5 5 5 5 5 5 4 4 4 4 4 4 4 4 4 4 4 4 4 5 5 5 5 5 5 5 5 5 5 5 5 6 5 5 5
6 6 5 5 5 5 4 4 4 4 4 4 4 4 4 4 4 4 4 4 3 4 4 4 4 4 4 4 4 4 4 4 4 5 5 5 5 5 5 5 5 5 5
5 5 5 4 4 4 4 4 4 3 3 3 3 3 3 3 3 3 3 3 3 3 3 3 3 3 3 4 4 4 4 4 4 4 4 4 4 5 5 4 4 4 4
4 4 4 4 3 3 3 3 3 3 3 3 3 3 2 2 2 2 2 2 2 2 2 2 2 2 3 3 3 3 3 3 3 3 3 4 4 4 4 4 4 4 4
4 3 3 3 3 3 3 2 2 2 2 2 2 2 2 2 2 2 2 2 2 2 2 1 2 2 2 2 2 2 2 2 2 3 3 3 3 3 3 3 3 3 4
3 3 3 3 2 2 2 2 2 1 1 1 1 1 1 1 1 1 1 1 1 1 1 1 1 1 1 1 2 2 1 1 2 2 2 2 3 3 3 3 3 3 3
2 2 2 2 2 1 1 1 1 1 1 0 0 1 1 0 0 0 0 0 -0 -0 -0 0 0 0 1 1 1 1 1 1 1 1 2 2 2 2 2 2 2 2 2
2 1 1 1 1 1 0 0 0 -0 -0 -0 -0 -0 -0 -0 -1 -1 -1 -1 -1 -1 -1 -1 -1 -1 -0 -0 0 0 1 1 1 1 1 1 1 1 1 1 2 2 2
1 1 1 0 0 0 -0 -0 -1 -1 -1 -1 -1 -1 -1 -1 -1 -1 -2 -2 -2 -2 -2 -2 -1 -1 -1 -1 -1 -0 -0 0 0 0 0 1 1 1 1 1 1 1 1
0 0 -0 -0 -0 -1 -1 -1 -1 -1 -2 -2 -2 -2 -2 -2 -2 -2 -2 -3 -2 -2 -2 -2 -2 -2 -2 -2 -1 -1 -0 -0 -0 -0 -0 -0 0 0 0 0 0 0 0
-0 -1 -1 -1 -1 -1 -1 -2 -2 -2 -2 -2 -2 -3 -3 -3 -3 -3 -3 -3 -3 -3 -3 -3 -3 -2 -2 -2 -2 -1 -1 -1 -1 -1 -1 -1 -1 -1 -1 -1 -0 -0 -0
Wind_Speed
4 3 3 3 3 3 3 3 4 3 3 4 5 5 6 6 6 7 9 10 11 11 11 10 11 10 10 11 11 10 11 10 8 7 7 9 12 13 12 12 12 13 14
3 3 2 2 2 2 3 3 3 3 4 4 5 5 5 5 6 7 8 10 10 11 10 11 11 11 11 13 12 11 9 9 8 7 5 6 8 10 11 12 12 13 12
4 3 2 2 2 2 3 3 3 4 4 4 4 4 4 5 5 6 7 8 10 11 11 12 12 11 11 11 13 12 13 10 10 10 7 6 7 6 8 12 12 12 12
3 3 3 3 3 3 3 4 4 4 4 4 4 5 6 6 7 6 7 8 9 10 11 12 12 12 11 12 13 13 12 12 10 9 11 10 7 6 5 7 10 12 13
3 4 3 4 4 3 3 4 4 5 4 4 5 5 6 7 6 6 8 8 8 10 11 11 12 12 12 13 13 13 13 12 12 10 9 11 10 12 9 8 8 9 10
3 3 3 4 4 4 4 4 5 5 5 5 6 6 7 8 8 8 7 7 7 8 10 10 11 12 12 13 13 13 14 13 14 12 11 9 9 10 11 12 11 10 9
2 3 4 4 4 5 5 5 6 6 6 6 6 7 8 8 9 9 8 8 7 7 9 9 10 11 12 13 13 13 14 15 15 14 12 12 13 10 11 11 11 11 9
2 4 5 5 5 5 6 6 6 6 6 6 6 6 7 7 7 9 8 9 8 9 9 10 10 11 12 13 13 12 14 14 15 15 15 12 12 12 11 11 10 10 10
3 4 5 6 6 6 6 6 6 6 6 5 6 6 6 7 8 8 8 8 8 8 10 11 11 11 12 12 12 11 14 14 14 14 15 14 12 11 11 11 11 11 11
4 5 6 6 6 6 6 6 6 6 6 5 5 4 5 6 7 7 8 9 9 9 10 10 11 11 11 12 12 12 13 13 14 12 15 14 12 11 11 11 11 12 12
5 6 6 7 7 7 6 6 6 6 5 5 5 5 5 6 6 7 8 8 9 9 9 10 11 11 11 11 12 13 13 14 14 13 14 16 15 12 11 11 11 12 12
6 6 6 7 7 7 7 7 6 6 6 5 5 5 5 6 6 7 8 8 9 9 9 9 10 11 11 11 12 13 13 14 15 14 14 15 12 14 12 11 13 12 13
6 6 6 7 7 7 7 7 7 7 6 6 6 6 6 7 7 8 8 8 9 9 9 9 10 10 11 11 11 13 13 14 14 14 14 14 14 14 13 13 13 12 12
6 7 7 7 7 7 7 7 7 7 7 7 7 7 7 8 8 8 8 8 9 9 9 10 10 10 11 11 11 12 12 13 13 13 14 14 14 15 14 12 13 12 12
7 7 7 7 8 8 7 7 8 8 8 8 7 8 8 8 8 8 8 8 9 9 9 10 10 10 10 10 10 11 12 13 13 13 13 13 14 15 13 11 11 11 11
8 8 8 8 8 8 7 7 8 8 8 8 8 8 8 9 9 9 9 9 9 9 9 10 10 11 9 10 10 11 11 11 12 11 11 11 11 11 12 13 12 12 12
8 8 9 8 8 7 7 7 8 8 8 8 8 8 9 9 9 9 9 9 9 9 9 10 10 11 11 11 11 11 11 11 10 10 10 8 8 9 9 10 10 11 12
8 8 8 7 7 7 7 7 7 8 8 8 8 8 9 9 9 9 10 9 8 8 9 9 10 10 10 10 11 10 10 10 10 10 10 9 9 8 8 8 8 9 9
7 7 7 7 7 7 7 7 8 8 8 8 9 9 9 9 9 10 9 8 8 8 9 8 9 10 10 9 9 9 8 8 8 8 9 8 9 8 7 7 7 7 7
5 6 6 7 7 6 6 7 8 8 9 9 10 9 9 9 9 9 9 8 8 8 8 8 8 9 10 9 8 8 5 6 6 7 7 8 8 7 6 7 7 8 6
6 6 6 6 6 6 6 7 8 8 9 9 10 9 9 9 9 9 7 8 8 8 8 8 8 9 8 7 7 7 5 5 5 5 5 5 5 6 6 6 6 6 4
6 6 6 6 6 6 6 8 8 9 9 9 9 9 8 7 7 8 7 7 7 7 7 7 7 6 6 6 6 7 7 6 6 5 5 4 4 5 5 5 4 3 2
6 6 6 7 6 6 6 8 8 8 9 9 9 8 8 7 7 7 7 6 6 5 6 6 6 6 6 5 6 6 7 7 6 5 5 5 5 4 4 4 3 3 2
6 6 6 7 7 7 7 7 8 8 8 9 8 7 7 7 7 6 5 5 5 5 5 6 6 6 6 6 5 5 5 5 5 4 4 4 3 2 2 2 2 2 2
5 5 6 7 8 7 7 6 7 7 7 7 7 7 6 6 6 6 5 6 6 6 6 5 6 6 7 7 9 7 5 4 4 4 3 2 2 1 1 0 0 1 1
5 5 6 7 7 7 7 6 6 6 7 6 6 5 5 5 5 5 6 6 7 9 9 9 8 7 8 11 11 10 8 7 5 3 2 2 2 1 1 1 1 1 1
Wind_Direction
263 266 268 263 257 257 257 251 246 239 232 232 230 229 234 236 236 235 236 235 236 235 235 236 234 230 228 230 230 229 231 231 233 238 248 252 247 242 239 238 238 238 236
271 275 265 257 254 256 253 248 251 248 242 243 236 235 242 240 243 241 242 239 238 237 236 236 235 232 231 232 231 228 230 231 221 222 238 251 246 240 239 237 237 240 238
272 280 281 276 265 258 256 255 248 248 251 253 245 241 245 243 242 242 243 241 241 238 235 238 238 235 233 233 231 227 227 229 224 219 220 233 242 254 235 235 235 236 237
283 294 302 309 296 285 273 262 256 250 253 253 247 241 246 250 254 251 248 248 247 246 241 239 239 238 236 235 234 230 230 230 229 225 228 239 250 247 251 234 235 238 239
309 306 303 304 308 311 303 288 276 265 262 256 248 247 254 258 261 258 257 255 250 247 246 244 242 241 239 238 235 232 230 229 230 228 226 235 244 244 246 253 246 242 241
332 324 319 317 318 324 317 307 295 285 278 267 253 250 257 260 258 259 259 260 258 253 250 247 245 244 241 240 237 234 231 232 232 231 228 227 227 233 237 246 250 251 248
349 340 332 329 326 325 319 306 301 296 293 279 263 256 259 262 258 258 258 260 260 259 258 255 251 248 245 243 240 237 236 234 233 232 232 231 234 236 237 243 252 257 258
360 345 335 326 324 323 318 313 305 299 298 290 278 267 264 264 262 258 259 258 258 259 261 258 257 257 253 248 243 240 239 238 235 234 234 235 235 235 234 238 246 256 258
349 342 337 332 324 320 319 317 308 302 298 295 289 281 273 267 268 269 264 262 262 264 263 261 260 259 257 252 249 244 242 240 237 235 235 236 236 234 234 235 235 241 255
328 332 331 334 329 323 320 320 315 305 298 296 292 289 285 280 277 276 276 269 267 268 266 264 262 261 259 255 252 248 245 243 240 236 235 235 237 236 234 234 235 235 243
315 323 325 329 330 330 327 322 320 316 310 306 299 294 293 291 287 283 280 280 274 270 268 266 265 263 262 258 254 250 245 243 244 240 237 237 237 237 235 234 233 234 236
310 314 319 324 328 332 331 325 321 318 311 306 300 298 298 295 290 289 290 287 283 277 272 269 266 265 264 262 258 255 249 245 244 243 242 243 240 239 238 236 235 234 235
307 312 317 321 322 326 328 328 324 317 311 304 299 299 300 298 295 294 296 295 290 284 276 269 266 266 265 264 261 259 253 250 249 245 242 242 241 241 240 238 238 238 238
299 305 311 318 320 321 326 326 325 322 315 305 299 298 300 299 299 296 296 296 293 287 284 276 271 269 266 263 261 262 259 254 251 250 247 245 241 241 240 240 240 240 240
298 302 306 314 319 319 322 323 321 323 321 309 301 298 298 299 298 297 296 295 292 290 285 283 277 270 266 264 263 265 263 259 255 253 252 249 245 244 242 241 241 241 241
299 305 308 311 314 314 317 319 320 322 319 311 306 304 302 300 299 299 297 294 292 291 288 283 280 274 268 273 272 271 266 262 258 257 257 255 248 247 244 243 241 240 242
299 307 310 311 312 313 313 313 317 318 316 312 308 308 305 301 300 300 297 295 292 292 288 286 284 281 279 280 276 274 268 266 262 258 257 257 253 249 249 249 243 244 244
298 306 309 310 311 312 312 311 312 312 311 311 310 310 308 302 301 299 296 295 293 289 288 286 285 284 285 291 287 280 270 266 264 260 253 253 253 247 248 248 246 247 248
298 303 307 307 306 308 312 309 307 309 308 308 309 309 307 305 305 302 299 296 294 291 289 287 285 285 287 293 293 289 279 271 268 266 256 251 253 249 240 241 242 247 251
303 305 306 305 302 306 309 305 305 307 308 309 309 308 307 304 302 302 302 301 299 295 295 290 286 286 288 292 294 293 283 279 277 274 265 252 251 248 232 235 236 241 248
304 303 302 301 302 307 306 302 303 304 309 309 307 308 307 303 302 303 302 303 304 301 298 296 290 287 286 291 296 298 286 281 282 280 277 270 260 250 238 238 240 238 240
300 300 298 298 302 304 302 299 301 308 311 309 308 309 311 310 307 308 306 302 302 301 301 300 301 301 299 298 301 301 297 296 283 280 281 280 277 256 244 238 234 219 221
299 298 293 295 299 302 299 297 304 311 310 308 309 312 314 312 308 306 305 304 305 304 306 306 307 312 315 315 315 308 303 302 293 284 281 286 282 268 247 237 229 208 212
300 299 293 293 297 303 301 299 305 308 307 307 310 312 312 314 315 311 308 308 304 303 306 309 311 313 314 318 323 316 310 308 300 297 293 289 284 267 246 246 225 216 204
297 294 290 291 296 302 301 305 307 308 308 309 311 312 312 311 314 315 312 311 305 300 302 304 305 306 308 313 316 315 310 307 302 307 309 312 317 321 300 245 190 173 164
289 287 288 292 297 301 302 306 308 308 307 307 310 311 309 310 310 311 315 319 314 318 316 314 311 309 311 319 318 318 316 312 305 301 296 305 304 287 254 201 187 166 161
Height
1455 1454 1454 1453 1454 1454 1454 1454 1454 1453 1454 1454 1454 1454 1454 1455 1455 1456 1457 1457 1458 1459 1460 1460 1461 1461 1461 1461 1462 1462 1463 1464 1465 1466 1465 1465 1465 1465 1465 1465 1466 1467 1467
1452 1451 1450 1451 1451 1451 1451 1451 1451 1451 1451 1450 1450 1451 1450 1451 1451 1451 1452 1452 1453 1453 1454 1454 1455 1455 1455 1456 1456 1456 1457 1458 1459 1460 1460 1460 1460 1458 1458 1458 1459 1460 1461
1450 1449 1448 1448 1448 1448 1448 1448 1448 1448 1448 1447 1447 1447 1447 1446 1446 1446 1446 1446 1447 1447 1447 1448 1448 1449 1449 1449 1450 1450 1451 1451 1452 1453 1455 1455 1453 1453 1452 1452 1452 1453 1454
1447 1447 1446 1446 1445 1445 1445 1445 1445 1445 1445 1444 1443 1443 1442 1441 1441 1441 1440 1441 1441 1441 1441 1442 1442 1442 1443 1443 1443 1444 1444 1445 1445 1446 1447 1448 1448 1449 1447 1446 1446 1447 1447
1445 1444 1444 1443 1443 1442 1442 1442 1441 1441 1441 1440 1439 1438 1438 1437 1436 1436 1436 1435 1435 1435 1435 1435 1435 1435 1435 1436 1436 1437 1437 1438 1438 1438 1439 1441 1442 1442 1442 1440 1441 1440 1440
1443 1443 1442 1441 1440 1439 1439 1438 1438 1437 1436 1436 1435 1434 1433 1432 1431 1431 1430 1429 1429 1429 1428 1428 1429 1428 1428 1428 1429 1429 1430 1430 1431 1431 1432 1432 1434 1434 1435 1434 1434 1434 1434
1442 1441 1440 1439 1438 1437 1436 1435 1434 1433 1432 1431 1430 1429 1428 1427 1426 1425 1425 1424 1423 1422 1422 1422 1421 1421 1421 1421 1421 1421 1422 1422 1423 1423 1424 1425 1426 1427 1428 1428 1428 1427 1427
1440 1439 1438 1437 1435 1434 1433 1431 1430 1428 1427 1426 1425 1423 1423 1422 1421 1420 1420 1418 1417 1416 1415 1415 1414 1414 1414 1414 1414 1413 1414 1415 1415 1415 1416 1416 1417 1419 1420 1421 1422 1421 1420
1438 1437 1436 1434 1432 1431 1429 1428 1426 1424 1423 1421 1420 1418 1417 1417 1415 1414 1414 1413 1412 1411 1410 1409 1408 1407 1407 1406 1406 1405 1406 1407 1406 1407 1408 1408 1409 1410 1411 1412 1413 1415 1413
1436 1435 1434 1432 1430 1428 1426 1424 1422 1420 1419 1417 1415 1413 1412 1411 1410 1409 1407 1406 1405 1404 1403 1402 1401 1400 1399 1399 1399 1398 1398 1398 1398 1399 1399 1400 1401 1402 1403 1404 1405 1405 1406
1434 1433 1431 1429 1427 1425 1423 1421 1418 1416 1414 1413 1411 1409 1408 1406 1405 1403 1402 1400 1399 1398 1396 1395 1394 1393 1392 1391 1391 1391 1391 1391 1391 1391 1391 1392 1393 1394 1394 1395 1396 1397 1398
1432 1430 1428 1426 1424 1422 1420 1417 1415 1412 1410 1408 1407 1405 1403 1401 1400 1398 1396 1394 1392 1391 1389 1388 1387 1386 1385 1385 1384 1384 1384 1383 1383 1384 1384 1384 1385 1386 1386 1387 1388 1389 1390
1429 1427 1426 1424 1421 1419 1416 1414 1411 1409 1407 1405 1403 1400 1398 1396 1394 1392 1390 1388 1386 1385 1383 1382 1380 1379 1378 1378 1377 1377 1376 1376 1376 1376 1376 1376 1377 1378 1378 1379 1380 1380 1381
1426 1425 1423 1421 1418 1416 1413 1410 1408 1405 1403 1401 1398 1396 1394 1392 1389 1387 1385 1383 1381 1378 1377 1375 1374 1372 1372 1371 1370 1370 1369 1369 1369 1369 1369 1369 1369 1370 1371 1371 1372 1373 1373
1423 1422 1420 1417 1415 1412 1410 1407 1404 1402 1399 1396 1394 1391 1389 1387 1384 1382 1379 1377 1375 1373 1370 1369 1367 1366 1365 1364 1363 1363 1362 1362 1361 1361 1361 1361 1362 1362 1363 1364 1364 1365 1365
1419 1418 1416 1413 1411 1409 1406 1404 1401 1398 1395 1392 1390 1387 1384 1382 1379 1376 1373 1371 1369 1367 1365 1363 1361 1359 1358 1357 1357 1356 1355 1354 1354 1353 1353 1353 1354 1354 1355 1356 1356 1357 1358
1416 1414 1412 1410 1407 1405 1403 1400 1397 1394 1391 1388 1385 1382 1379 1376 1373 1371 1368 1365 1363 1361 1358 1356 1354 1353 1351 1350 1349 1349 1348 1347 1346 1346 1346 1345 1346 1347 1347 1347 1348 1349 1350
1412 1410 1408 1406 1404 1402 1399 1397 1394 1391 1387 1384 1381 1378 1374 1371 1368 1365 1362 1360 1357 1355 1353 1350 1348 1347 1345 1343 1342 1342 1341 1340 1339 1339 1338 1339 1339 1339 1340 1340 1340 1340 1341
1409 1407 1405 1402 1400 1398 1395 1392 1389 1387 1383 1380 1377 1373 1370 1366 1363 1360 1357 1355 1352 1350 1347 1345 1343 1341 1339 1338 1336 1335 1334 1333 1332 1332 1332 1332 1332 1332 1333 1333 1333 1333 1334
1405 1403 1401 1398 1396 1394 1391 1388 1385 1382 1379 1376 1372 1368 1365 1361 1358 1355 1352 1350 1347 1345 1342 1340 1338 1336 1333 1332 1330 1329 1328 1326 1326 1325 1325 1325 1325 1325 1326 1327 1327 1326 1327
1401 1399 1397 1394 1392 1389 1387 1384 1381 1378 1375 1371 1367 1364 1360 1356 1353 1350 1348 1345 1343 1340 1337 1335 1333 1331 1329 1327 1325 1324 1323 1322 1320 1319 1318 1318 1319 1319 1320 1321 1321 1321 1322
1397 1395 1392 1390 1388 1385 1383 1380 1377 1374 1370 1367 1363 1359 1355 1352 1349 1346 1343 1341 1338 1336 1333 1330 1328 1326 1324 1322 1320 1319 1318 1317 1316 1314 1314 1313 1313 1314 1314 1315 1315 1316 1317
1393 1391 1388 1386 1384 1381 1379 1376 1373 1370 1366 1362 1359 1355 1352 1349 1346 1343 1340 1337 1335 1332 1329 1327 1324 1322 1320 1318 1316 1315 1314 1313 1312 1310 1310 1309 1308 1308 1309 1309 1310 1311 1312
1388 1386 1384 1382 1379 1377 1375 1372 1369 1365 1362 1359 1355 1352 1348 1345 1343 1340 1337 1335 1332 1329 1327 1324 1322 1319 1317 1315 1313 1312 1310 1309 1307 1306 1305 1305 1304 1304 1304 1305 1306 1307 1308
1384 1382 1380 1378 1375 1373 1370 1368 1365 1362 1359 1355 1352 1349 1346 1342 1339 1337 1335 1332 1329 1327 1325 1322 1320 1318 1315 1313 1311 1309 1307 1305 1304 1302 1302 1301 1301 1300 1300 1301 1302 1304 1305
1379 1378 1376 1373 1371 1368 1366 1364 1361 1359 1356 1352 1349 1346 1343 1340 1337 1334 1331 1329 1327 1324 1322 1319 1318 1315 1313 1310 1307 1305 1304 1302 1301 1300 1298 1298 1298 1297 1298 1298 1299 1301 1302